This demonstration page uses our WeatherBlox Daily Observations layout. Learn more.

Left ArrowRight Arrow

Hourly Observations for March 12, 2022

Temp ( °F °C ) Dew Point ( °F °C ) Humidity (%) Winds ( mph kmh ) Pressure ( in mb ) Visibility ( mi km ) Precip ( " mm )
12:15 am 00:15 Clear 10 -12 9 -13 92 92 Calm 30.56 1035 10 16 0.00 0.00
12:35 am 00:35 Clear 12 -11 9 -13 85 85 Calm 30.54 1034 10 16 0.00 0.00
12:55 am 00:55 Clear 10 -12 9 -13 92 92 SW 3 6 30.54 1034 10 16 0.00 0.00
1:15 am 01:15 Clear 9 -13 5 -15 85 85 WSW 5 7 30.56 1035 10 16 0.00 0.00
1:35 am 01:35 Clear 10 -12 5 -15 79 79 W 6 9 30.56 1035 10 16 0.00 0.00
1:55 am 01:55 Clear 10 -12 7 -14 85 85 W 6 9 30.56 1035 10 16 0.00 0.00
2:15 am 02:15 Clear 10 -12 7 -14 85 85 Calm 30.55 1035 10 16 0.00 0.00
2:35 am 02:35 Clear 10 -12 9 -13 92 92 Calm 30.53 1034 10 16 0.00 0.00
2:55 am 02:55 Clear 10 -12 7 -14 85 85 Calm 30.53 1034 10 16 0.00 0.00
3:15 am 03:15 Clear 10 -12 7 -14 85 85 Calm 30.52 1034 10 16 0.00 0.00
3:35 am 03:35 Clear 10 -12 9 -13 92 92 Calm 30.51 1033 10 16 0.00 0.00
3:55 am 03:55 Clear 10 -12 9 -13 92 92 Calm 30.51 1033 10 16 0.00 0.00
4:15 am 04:15 Clear 12 -11 9 -13 85 85 S 3 6 30.49 1033 10 16 0.00 0.00
4:35 am 04:35 Clear 14 -10 10 -12 85 85 S 3 6 30.48 1032 10 16 0.00 0.00
4:55 am 04:55 Clear 12 -11 9 -13 85 85 S 5 7 30.49 1033 10 16 0.00 0.00
5:15 am 05:15 Partly Cloudy 12 -11 9 -13 85 85 S 7 11 30.47 1032 10 16 0.00 0.00
5:35 am 05:35 Partly Cloudy 12 -11 9 -13 85 85 S 6 9 30.47 1032 10 16 0.00 0.00
5:55 am 05:55 Mostly Cloudy 12 -11 9 -13 85 85 S 7 11 30.47 1032 10 16 0.00 0.00
6:15 am 06:15 Mostly Cloudy 12 -11 9 -13 85 85 SSW 8 13 30.47 1032 10 16 0.00 0.00
6:35 am 06:35 Partly Cloudy 12 -11 9 -13 85 85 S 9 15 30.46 1032 10 16 0.00 0.00
6:55 am 06:55 Clear 12 -11 9 -13 85 85 S 7 11 30.45 1031 10 16 0.00 0.00
7:15 am 07:15 Sunny 12 -11 9 -13 85 85 SSW 7 11 30.45 1031 10 16 0.00 0.00
7:35 am 07:35 Sunny 12 -11 9 -13 85 85 SSW 7 11 30.44 1031 10 16 0.00 0.00
7:55 am 07:55 Sunny 14 -10 10 -12 85 85 SSW 10 17 30.42 1030 10 16 0.00 0.00
8:15 am 08:15 Sunny 16 -9 12 -11 86 86 SSW 9 15 30.40 1029 10 16 0.00 0.00
8:35 am 08:35 Sunny 18 -8 12 -11 79 79 SSW 12 19 30.39 1029 10 16 0.00 0.00
8:55 am 08:55 Sunny 19 -7 14 -10 79 79 SSW 12 19 30.37 1028 10 16 0.00 0.00
9:15 am 09:15 Sunny 21 -6 14 -10 74 74 SSW 12 19 30.36 1028 10 16 0.00 0.00
9:35 am 09:35 Sunny 21 -6 16 -9 80 80 SW 14 22 30.35 1028 10 16 0.00 0.00
9:55 am 09:55 Sunny 25 -4 18 -8 74 74 SSW 10 17 30.33 1027 10 16 0.00 0.00
10:15 am 10:15 Sunny 28 -2 19 -7 69 69 SW 8 13 30.30 1026 10 16 0.00 0.00
10:35 am 10:35 Sunny 30 -1 19 -7 64 64 SW 12 19 30.28 1025 10 16 0.00 0.00
10:55 am 10:55 Sunny 32 0 21 -6 64 64 SW 10 17 30.26 1025 10 16 0.00 0.00
11:15 am 11:15 Sunny 32 0 21 -6 64 64 SW 7 11 30.26 1025 10 16 0.00 0.00
11:35 am 11:35 Sunny 34 1 21 -6 60 60 WSW 8 13 30.24 1024 10 16 0.00 0.00
11:55 am 11:55 Sunny 36 2 23 -5 60 60 WSW 7 11 30.22 1023 10 16 0.00 0.00
12:15 pm 12:15 Sunny 37 3 23 -5 56 56 SW 6 9 30.20 1023 10 16 0.00 0.00
12:35 pm 12:35 Sunny 41 5 27 -3 57 57 SSW 5 7 30.16 1021 10 16 0.00 0.00
12:55 pm 12:55 Sunny 45 7 28 -2 53 53 SSW 9 15 30.13 1020 10 16 0.00 0.00
1:15 pm 13:15 Sunny 48 9 30 -1 50 50 WSW 9 15 30.09 1019 10 16 0.00 0.00
1:35 pm 13:35 Sunny 48 9 28 -2 46 46 W 13 20 30.08 1019 10 16 0.00 0.00
1:55 pm 13:55 Sunny 52 11 32 0 47 47 W 10 17 30.05 1018 10 16 0.00 0.00
2:15 pm 14:15 Sunny 54 12 32 0 44 44 WSW 12 19 30.02 1017 10 16 0.00 0.00
2:35 pm 14:35 Sunny 54 12 30 -1 41 41 WSW 13 20 30.01 1016 10 16 0.00 0.00
2:55 pm 14:55 Sunny 54 12 30 -1 41 41 WSW 13 20 30.00 1016 10 16 0.00 0.00
3:15 pm 15:15 Sunny 55 13 30 -1 38 38 SW 14 22 29.98 1015 10 16 0.00 0.00
3:35 pm 15:35 Sunny 55 13 30 -1 38 38 W 15 24 29.98 1015 10 16 0.00 0.00
3:55 pm 15:55 Sunny 55 13 30 -1 38 38 WSW 13 20 29.97 1015 10 16 0.00 0.00
4:15 pm 16:15 Sunny 55 13 30 -1 38 38 WSW 16 26 29.96 1015 10 16 0.00 0.00
4:35 pm 16:35 Sunny 55 13 30 -1 38 38 SW 15 24 29.96 1015 10 16 0.00 0.00
4:55 pm 16:55 Sunny 55 13 32 0 41 41 WSW 9 15 29.95 1014 10 16 0.00 0.00
5:15 pm 17:15 Sunny 55 13 32 0 41 41 WSW 10 17 29.94 1014 10 16 0.00 0.00
5:35 pm 17:35 Sunny 55 13 32 0 41 41 WSW 9 15 29.94 1014 10 16 0.00 0.00
5:55 pm 17:55 Sunny 54 12 32 0 44 44 WSW 8 13 29.95 1014 10 16 0.00 0.00
6:15 pm 18:15 Sunny 52 11 32 0 47 47 SW 9 15 29.96 1015 10 16 0.00 0.00
6:35 pm 18:35 Sunny 48 9 32 0 54 54 SW 8 13 29.98 1015 10 16 0.00 0.00
6:55 pm 18:55 Clear 46 8 32 0 57 57 SW 7 11 29.99 1016 10 16 0.00 0.00
7:15 pm 19:15 Clear 45 7 32 0 61 61 WSW 9 15 30.00 1016 10 16 0.00 0.00
7:35 pm 19:35 Clear 43 6 30 -1 61 61 WSW 8 13 30.01 1016 10 16 0.00 0.00
7:55 pm 19:55 Clear 41 5 30 -1 66 66 WSW 7 11 30.02 1017 10 16 0.00 0.00
8:15 pm 20:15 Clear 39 4 30 -1 70 70 W 7 11 30.04 1017 10 16 0.00 0.00
8:35 pm 20:35 Clear 39 4 30 -1 70 70 W 8 13 30.04 1017 10 16 0.00 0.00
8:55 pm 20:55 Clear 37 3 30 -1 75 75 W 6 9 30.05 1018 10 16 0.00 0.00
9:15 pm 21:15 Clear 36 2 28 -2 75 75 WSW 7 11 30.06 1018 10 16 0.00 0.00
9:35 pm 21:35 Clear 36 2 28 -2 75 75 W 7 11 30.06 1018 10 16 0.00 0.00
9:55 pm 21:55 Clear 37 3 30 -1 75 75 W 8 13 30.06 1018 10 16 0.00 0.00
10:15 pm 22:15 Clear 36 2 28 -2 75 75 W 7 11 30.08 1019 10 16 0.00 0.00
10:35 pm 22:35 Clear 37 3 30 -1 75 75 W 9 15 30.07 1018 10 16 0.00 0.00
10:55 pm 22:55 Clear 36 2 28 -2 75 75 W 8 13 30.08 1019 10 16 0.00 0.00
11:15 pm 23:15 Clear 34 1 28 -2 81 81 SW 8 13 30.08 1019 10 16 0.00 0.00
11:35 pm 23:35 Clear 34 1 28 -2 81 81 W 7 11 30.08 1019 10 16 0.00 0.00
11:55 pm 23:55 Clear 34 1 28 -2 81 81 W 8 13 30.08 1019 10 16 0.00 0.00

Powered by AerisWeather